Athens, OH

7:09 AM EDT on August 20, 2017 (GMT -0400)
Ohio University

Weather History for KUNI - April, 2014

Change the Weather History Date:

Wednesday, April 16, 2014

  Actual Average (KPKB) Record (KPKB)
Temperature  
Mean Temperature 35 °F -  
Max Temperature 48 °F 65 °F 88 °F (2002)
Min Temperature 22 °F 41 °F 22 °F (1962)
Degree Days  
Heating Degree Days 30    
Moisture  
Dew Point 20 °F    
Average Humidity 57    
Maximum Humidity 91    
Minimum Humidity 29    
Precipitation  
Precipitation 0.00 in - - ()
Sea Level Pressure  
Sea Level Pressure 30.36 in    
Wind  
Wind Speed 3 mph (ENE)    
Max Wind Speed 10 mph    
Max Gust Speed 16 mph    
Visibility 10 miles    
Events      
Averages and records for this station are not official NWS values.
T = Trace of Precipitation, MM = Missing Value Source: NWS Daily Summary

Daily Weather History Graph

Daily Weather History Graph

Search for Another Location

Airport or City:

Trip Planner

Search our weather history database for the weather conditions in past years. The results will help you decide how hot, cold, wet, or windy it might be!

Date:

Astronomy

Apr. 16, 2014 Rise Set
Actual Time 6:50 AM EDT 8:07 PM EDT
Civil Twilight 6:22 AM EDT 8:35 PM EDT
Nautical Twilight 5:49 AM EDT 9:08 PM EDT
Astronomical Twilight 5:14 AM EDT 9:43 PM EDT
Moon 9:49 PM EDT (4/16) 7:37 AM EDT (4/16)
Length of Visible Light 14h 12m
Length of Day
13h 16m
Full, 98% of the Moon is Illuminated
Apr 16
Full
Apr 22
Last Quarter
Apr 29
New
May 6
First Quarter
May 14
Full

Hourly Weather History & Observations

Time (EDT) Temp. Windchill Dew Point Humidity Pressure Visibility Wind Dir Wind Speed Gust Speed Precip Events Conditions
12:15 AM 30.2 °F - 19.8 °F 65% 30.24 in 10.0 mi Calm Calm - N/A   Scattered Clouds
12:35 AM 29.7 °F - 19.2 °F 65% 30.24 in 10.0 mi Calm Calm - N/A   Clear
12:55 AM 27.7 °F - 20.8 °F 75% 30.24 in 10.0 mi Calm Calm - N/A   Clear
1:15 AM 26.6 °F - 20.7 °F 78% 30.24 in 10.0 mi Calm Calm - N/A   Clear
1:35 AM 26.6 °F - 20.8 °F 79% 30.24 in 10.0 mi Calm Calm - N/A   Clear
1:55 AM 25.3 °F - 21.2 °F 84% 30.25 in 10.0 mi Calm Calm - N/A   Clear
2:15 AM 25.2 °F - 20.3 °F 82% 30.26 in 10.0 mi Calm Calm - N/A   Clear
2:35 AM 25.3 °F - 21.0 °F 84% 30.26 in 10.0 mi Calm Calm - N/A   Clear
2:55 AM 24.6 °F - 21.2 °F 87% 30.27 in 10.0 mi Calm Calm - N/A   Clear
3:15 AM 23.9 °F - 20.7 °F 87% 30.27 in 10.0 mi Calm Calm - N/A   Clear
3:35 AM 24.1 °F 19.7 °F 20.5 °F 86% 30.29 in 10.0 mi West 3.5 mph - N/A   Clear
3:55 AM 24.3 °F - 20.8 °F 87% 30.31 in 10.0 mi Calm Calm - N/A   Clear
4:15 AM 23.9 °F - 20.3 °F 86% 30.32 in 10.0 mi Calm Calm - N/A   Clear
4:35 AM 23.7 °F - 20.8 °F 89% 30.33 in 10.0 mi Calm Calm - N/A   Clear
4:55 AM 23.0 °F - 20.3 °F 89% 30.34 in 10.0 mi Calm Calm - N/A   Clear
5:15 AM 23.0 °F - 20.3 °F 89% 30.34 in 10.0 mi Calm Calm - N/A   Clear
5:35 AM 22.8 °F - 20.3 °F 90% 30.35 in 10.0 mi Calm Calm - N/A   Clear
6:15 AM 22.1 °F - 19.8 °F 91% 30.37 in 10.0 mi Calm Calm - N/A   Clear
6:35 AM 22.1 °F - 19.9 °F 91% 30.39 in 10.0 mi Calm Calm - N/A   Clear
6:55 AM 22.1 °F - 19.8 °F 91% 30.40 in 10.0 mi Calm Calm - N/A   Clear
7:15 AM 22.5 °F - 19.9 °F 90% 30.41 in 10.0 mi Calm Calm - N/A   Clear
7:35 AM 23.0 °F - 20.3 °F 89% 30.42 in 10.0 mi Calm Calm - N/A   Clear
7:55 AM 24.6 °F - 21.9 °F 89% 30.43 in 10.0 mi Calm Calm - N/A   Clear
8:15 AM 26.1 °F - 22.8 °F 88% 30.43 in 10.0 mi Calm Calm - N/A   Clear
8:35 AM 28.9 °F - 22.5 °F 77% 30.43 in 10.0 mi Calm Calm - N/A   Clear
8:55 AM 30.7 °F 24.1 °F 21.6 °F 69% 30.43 in 10.0 mi ENE 6.9 mph - N/A   Clear
9:15 AM 31.8 °F 26.2 °F 21.6 °F 66% 30.44 in 10.0 mi NE 5.8 mph - N/A   Clear
9:35 AM 33.1 °F 25.5 °F 19.9 °F 59% 30.44 in 10.0 mi East 9.2 mph - N/A   Clear
9:55 AM 34.5 °F 27.9 °F 19.0 °F 53% 30.44 in 10.0 mi ENE 8.1 mph - N/A   Clear
10:15 AM 35.1 °F 30.1 °F 17.8 °F 49% 30.44 in 10.0 mi East 5.8 mph - N/A   Clear
10:35 AM 36.0 °F 30.3 °F 18.5 °F 49% 30.45 in 10.0 mi East 6.9 mph - N/A   Clear
10:55 AM 37.0 °F 32.4 °F 19.2 °F 49% 30.45 in 10.0 mi ENE 5.8 mph - N/A   Clear
11:15 AM 37.4 °F 30.3 °F 17.8 °F 45% 30.45 in 10.0 mi East 10.4 mph - N/A   Clear
11:35 AM 38.3 °F 31.4 °F 17.4 °F 43% 30.44 in 10.0 mi NE 10.4 mph - N/A   Clear
11:55 AM 38.5 °F 34.1 °F 18.0 °F 44% 30.44 in 10.0 mi East 5.8 mph - N/A   Clear
12:15 PM 39.6 °F 35.4 °F 19.2 °F 44% 30.44 in 10.0 mi East 5.8 mph - N/A   Clear
12:35 PM 40.1 °F 34.1 °F 17.6 °F 40% 30.43 in 10.0 mi ENE 9.2 mph - N/A   Clear
12:55 PM 40.5 °F 34.6 °F 19.0 °F 42% 30.43 in 10.0 mi East 9.2 mph - N/A   Clear
1:15 PM 42.1 °F 39.2 °F 20.5 °F 42% 30.43 in 10.0 mi East 4.6 mph - N/A   Clear
1:35 PM 42.1 °F 38.4 °F 16.9 °F 36% 30.42 in 10.0 mi ESE 5.8 mph - N/A   Clear
1:55 PM 43.0 °F 38.8 °F 17.4 °F 36% 30.42 in 10.0 mi ESE 6.9 mph - N/A   Clear
2:15 PM 43.5 °F 39.4 °F 18.3 °F 36% 30.41 in 10.0 mi East 6.9 mph - N/A   Clear
2:35 PM 43.9 °F 42.3 °F 17.8 °F 35% 30.40 in 10.0 mi North 3.5 mph - N/A   Clear
2:55 PM 45.1 °F 40.8 °F 17.6 °F 33% 30.39 in 10.0 mi ENE 8.1 mph - N/A   Clear
3:15 PM 45.9 °F 41.2 °F 17.6 °F 32% 30.39 in 10.0 mi East 9.2 mph 16.1 mph N/A   Clear
3:35 PM 46.4 °F 42.9 °F 17.1 °F 31% 30.38 in 10.0 mi East 6.9 mph - N/A   Clear
3:55 PM 46.8 °F - 18.0 °F 32% 30.37 in 10.0 mi East 9.2 mph - N/A   Clear
4:15 PM 46.8 °F - 17.2 °F 31% 30.37 in 10.0 mi East 3.5 mph - N/A   Clear
4:35 PM 47.5 °F - 17.1 °F 30% 30.36 in 10.0 mi East 6.9 mph - N/A   Clear
4:55 PM 48.2 °F - 18.1 °F 30% 30.35 in 10.0 mi East 9.2 mph - N/A   Clear
5:15 PM 48.0 °F - 17.6 °F 30% 30.34 in 10.0 mi ENE 6.9 mph - N/A   Clear
5:35 PM 48.0 °F - 18.5 °F 31% 30.34 in 10.0 mi ENE 4.6 mph - N/A   Clear
5:55 PM 48.4 °F - 19.0 °F 31% 30.34 in 10.0 mi ENE 10.4 mph - N/A   Clear
6:15 PM 48.4 °F - 17.1 °F 29% 30.34 in 10.0 mi ENE 4.6 mph - N/A   Clear
6:35 PM 48.4 °F - 18.1 °F 30% 30.33 in 10.0 mi East 6.9 mph - N/A   Clear
6:55 PM 48.2 °F - 18.3 °F 31% 30.33 in 10.0 mi East 8.1 mph - N/A   Clear
7:15 PM 47.3 °F - 18.3 °F 32% 30.32 in 10.0 mi East 9.2 mph - N/A   Clear
7:35 PM 46.9 °F - 19.0 °F 33% 30.32 in 10.0 mi East 4.6 mph - N/A   Clear
7:55 PM 45.5 °F 43.2 °F 19.4 °F 35% 30.32 in 10.0 mi East 4.6 mph - N/A   Clear
8:15 PM 44.6 °F 43.1 °F 19.4 °F 37% 30.33 in 10.0 mi East 3.5 mph - N/A   Clear
8:55 PM 41.5 °F 38.6 °F 20.5 °F 43% 30.32 in 10.0 mi East 4.6 mph - N/A   Clear
9:15 PM 41.4 °F 39.4 °F 20.7 °F 44% 30.33 in 10.0 mi East 3.5 mph - N/A   Clear
9:35 PM 39.4 °F 36.1 °F 22.5 °F 51% 30.32 in 10.0 mi ENE 4.6 mph - N/A   Clear
9:55 PM 39.2 °F 35.9 °F 23.2 °F 53% 30.32 in 10.0 mi ENE 4.6 mph - N/A   Clear
10:15 PM 38.1 °F 34.6 °F 23.5 °F 56% 30.32 in 10.0 mi ENE 4.6 mph - N/A   Clear
10:35 PM 37.6 °F 34.0 °F 23.7 °F 57% 30.32 in 10.0 mi ENE 4.6 mph - N/A   Clear
10:55 PM 38.1 °F 33.7 °F 23.0 °F 55% 30.32 in 10.0 mi ENE 5.8 mph - N/A   Clear
11:15 PM 38.3 °F 33.9 °F 22.8 °F 54% 30.32 in 10.0 mi ENE 5.8 mph - N/A   Clear
11:35 PM 38.3 °F 34.8 °F 22.3 °F 53% 30.32 in 10.0 mi NE 4.6 mph - N/A   Clear
11:55 PM 38.3 °F 34.8 °F 21.6 °F 51% 30.32 in 10.0 mi ENE 4.6 mph - N/A   Clear